Flag for United Kingdom Weather past 2 weeks in Oxford, England, United Kingdom

Now
43 °F

Low clouds.


Feels Like: 34 °F
Forecast: 40 / 51 °F
Wind: 22 mph from South

Location: Benson

Current Time: Feb 28, 2015 at 7:32:56 AM

Latest Report: Feb 28, 2015 at 6:50 AM


Visibility: N/A

Pressure: 29.83 "Hg

Humidity: 93%

Dew point: 41 °F

Location of OxfordLocation

Historic Weather in Oxford — Graph

°F

Oxford temperature yesterday

Maximum temperature yesterday: 48 °F (at 2:50 PM)
Minimum temperature yesterday: 30 °F (at 6:50 AM)
Average temperature yesterday: 39 °F

Past Weeks' High & Low Weather Summary

 TemperatureHumidityPressure
High52 °F (Feb 25, 1:50 PM)100% (Feb 13, 11:50 PM)30.74 "Hg (Feb 13, 11:50 PM)
Low23 °F (Feb 22, 4:50 AM)43% (Feb 24, 2:50 PM)29.24 "Hg (Feb 22, 9:50 PM)
Average41 °F85%29.87 "Hg
* Reported Feb 13 5:50 AM — Feb 28 5:50 AM, Oxford, Weather by CustomWeather, © 2015

Note: Actual official high and low records may vary slightly from our data, if they occured in-between our weather recording intervals... More about our weather records

Advertising

Oxford weather history for previous 24 hours

 ConditionsComfort  
Time TempWeatherWind HumidityBarometerVisibility
5:50 AM
Sat, Feb 28
43 °FLow clouds.20 mph93%29.86 "HgN/A
4:50 AM43 °FLow clouds.20 mph93%29.89 "Hg5 mi
3:50 AM43 °FPassing clouds.20 mph93%29.89 "Hg4 mi
2:50 AM43 °FPassing clouds.18 mph87%29.92 "HgN/A
1:50 AM43 °FPassing clouds.12 mph87%29.98 "HgN/A
12:50 AM43 °FPassing clouds.15 mph81%29.98 "HgN/A
11:50 PM
Fri, Feb 27
41 °FPassing clouds.15 mph87%30.01 "HgN/A
10:50 PM39 °FPassing clouds.9 mph87%30.04 "HgN/A
9:50 PM37 °FPassing clouds.10 mph87%30.07 "HgN/A
8:50 PM39 °FOvercast.9 mph81%30.07 "HgN/A
7:50 PM41 °FOvercast.7 mph70%30.07 "HgN/A
6:50 PM39 °FOvercast.8 mph75%30.09 "HgN/A
5:50 PM41 °FPassing clouds.6 mph66%30.09 "HgN/A
4:50 PM45 °FPartly sunny.12 mph57%30.09 "HgN/A
3:50 PM48 °FScattered clouds.13 mph50%30.09 "HgN/A
2:50 PM48 °FPassing clouds.12 mph50%30.09 "HgN/A
1:50 PM46 °FPassing clouds.10 mph53%30.12 "HgN/A
12:50 PM46 °FPassing clouds.8 mph57%30.12 "HgN/A
11:50 AM45 °FPassing clouds.8 mph57%30.12 "HgN/A
10:50 AM43 °FPassing clouds.10 mph66%30.12 "HgN/A
9:50 AM41 °FSunny.8 mph70%30.12 "Hg10 mi
8:50 AM37 °FSunny.6 mph75%30.12 "Hg10 mi
7:50 AM32 °FSunny.5 mph93%30.09 "Hg10 mi
Weather by CustomWeather, © 2015

See weather overviewHow to use our weather pages